Regional Weather Roundup
Issued by NWS

Home | Current Version | Previous Version | Text Only | Print | Product List | Glossary Off
Versions: 1 2 3 4 5 6 7 8 9 10 11 12 13 14 15 16 17 18 19 20 21 22 23 24 25 26 27 28 29 30 31 32 33 34 35 36 37 38 39 40 41 42 43 44 45 46 47 48 49 50

000
ASUS45 KTFX 301904
RWRMT
MONTANA HOURLY WEATHER ROUNDUP
NATIONAL WEATHER SERVICE GREAT FALLS MT
104 PM MDT WED JUL 30 2014

NOTE: "FAIR" INDICATES FEW OR NO CLOUDS BELOW 12000 FEET WITH NO
SIGNIFICANT WEATHER AND/OR OBSTRUCTIONS TO VISIBILITY.

* THESE STATIONS ARE NOT UNDER NWS QUALITY CONTROL. THEY DO NOT
   REPORT WEATHER SUCH AS PRECIPITATION OR FOG.

MTZ001>007-043-302000-
WEST OF THE DIVIDE
CITY           SKY/WX    TMP DP  RH WIND       PRES   REMARKS
KALISPELL      PTCLDY    84  52  33 SE7       30.10F
MISSOULA       PTCLDY    88  45  22 W5        30.12F
BUTTE          PTCLDY    81  43  26 SE7G17    30.27F
MULLAN PASS    SUNNY     77  39  26 VRB3      30.32S
* LINCOLN      N/A       85  48  28 S3         N/A
* LOOKOUT PASS N/A       82  41  23 N8G14      N/A
* POLSON       N/A       90  49  24 W3         N/A
* RONAN APT    SUNNY     84  52  33 N/A        N/A
* SEELEY LAKE  N/A       87  46  24 SW4        N/A
* THOMP F APT  SUNNY     77  41  28 NE10G24    N/A
* YAAK HILL    N/A       89  50  26 W2         N/A
$$

MTZ008-052>055-302000-
SOUTHWEST MONTANA
CITY           SKY/WX    TMP DP  RH WIND       PRES   REMARKS
BOZEMAN        PTCLDY    84  45  26 VRB6      30.22F
DILLON         PTCLDY    79  46  31 CALM      30.25F
W YELLOWSTONE  PTCLDY    70  41  35 N6        30.38F
* THREE FORKS  PTCLDY    82  57  43 E5         N/A   HI  82
* BOULDER HILL N/A       80  47  31 SW9G18     N/A
* MONIDA PASS  N/A       74  38  27 E6G11      N/A
* RAYNOLDS PAS N/A       73  48  41 SE6G14     N/A
* WHITEHALL    N/A       84  50  31 S3         N/A
* WISE RIVER   N/A       81  43  26 SE7        N/A
$$

MTZ009>010-012-014-046-048-049-054-302000-
EAST SLOPES AND CENTRAL MONTANA
CITY           SKY/WX    TMP DP  RH WIND       PRES   REMARKS
GREAT FALLS    SUNNY     91  37  15 SE8       30.13F
HELENA         PTCLDY    88  46  23 SE7       30.15F
MALMSTROM AFB  SUNNY     90  39  17 NE6       30.14F
* CONRAD       PTCLDY    88  54  31 E6         N/A
* DEARBORN     N/A       90  44  20 SW6G13     N/A
* EAST GLACIER N/A       82  42  24 NE2G7      N/A
* MONARCH      N/A       82  41  23 W8         N/A
* ROGERS PASS  N/A       77  42  29 SE4G11     N/A
* SAINT MARY   N/A       87  41  20 W4         N/A
* SWEET GRASS  N/A       87  45  23 S13G20     N/A
$$

MTZ011-013-016-021-035-040-045-047-050-051-302000-
NORTH CENTRAL MONTANA
CITY           SKY/WX    TMP DP  RH WIND       PRES   REMARKS
HAVRE          PTCLDY    97  39  13 SW9       30.08F
LEWISTOWN      SUNNY     88  37  16 E7        30.21F
* CHESTER      N/A       90  39  17 S5G13      N/A
* DENTON       N/A       89  45  22 S6G18      N/A
* GEYSER       N/A       90  44  20 SE10G17    N/A
* JUDITH GAP   N/A       82  46  28 SE13G18    N/A
* LOMA         N/A       92  34  13 NE8G17     N/A
$$

MTZ017>020-022>027-061-062-302000-
NORTHEAST MONTANA
CITY           SKY/WX    TMP DP  RH WIND       PRES   REMARKS
GLASGOW        SUNNY     88  46  23 S9        30.13F
GLENDIVE       SUNNY     82  54  38 E12       30.18F
JORDAN         SUNNY     91  41  17 CALM      30.14F
SIDNEY         SUNNY     82  54  38 E5        30.18S
WOLF POINT     SUNNY     88  46  23 VRB5      30.15F
* BEAVER HILL  N/A       79  50  36 NE4G11     N/A
* CIRCLE       N/A       85  54  35 N/A        N/A
* LINDSAY DVD  N/A       81  49  33 E4G9       N/A
$$

MTZ028>042-056>058-302000-
SOUTHCENTRAL AND SOUTHEAST MONTANA
CITY           SKY/WX    TMP DP  RH WIND       PRES   REMARKS
BAKER          SUNNY     84  48  29 N/A       30.20F
BILLINGS       PTCLDY    84  46  26 VRB6      30.22F
LIVINGSTON     PTCLDY    84  37  19 N6G18     30.24F
MILES CITY     SUNNY     86  43  22 E10       30.18F
* LAUREL APT   PTCLDY    84  45  26 NE6        N/A
* ROUNDUP APT  SUNNY     86  45  24 N/A        N/A
* ALZADA       N/A       81  41  24 W6         N/A
* HYSHAM       N/A       88  46  23 NE5G14     N/A
* LAME DEER    N/A       79  41  26 N6G11      N/A
* REED POINT   N/A       86  47  26 NE12G18    N/A
* ROSCOE HILL  N/A       79  37  22 E20G27     N/A
$$

REGIONAL REPORTS...DAKOTAS
CITY           SKY/WX    TMP DP  RH WIND       PRES   REMARKS
WILLISTON      SUNNY     82  48  31 NE16G21   30.17F
DICKINSON      SUNNY     79  52  39 CALM      30.17S
CROSBY         SUNNY     75  54  48 N8        30.19S
TIOGA          SUNNY     75  54  48 NE8       30.21S
WATFORD CITY   SUNNY     81  50  34 N10G18    30.15F
BISMARCK       PTCLDY    81  55  41 N5        30.14F HI  81
GRAND FORKS    SUNNY     81  57  44 N6        30.08F HI  81
FARGO          PTCLDY    81  54  39 N12       30.09F
BUFFALO SD     SUNNY     81  46  29 VRB5      30.13F
RAPID CITY     PTCLDY    82  54  38 NW8       30.18F
$$

REGIONAL REPORTS...WYOMING/IDAHO/WASHINGTON
CITY           SKY/WX    TMP DP  RH WIND       PRES   REMARKS
GILLETTE       SUNNY     81  43  26 N6G21     30.25F
SHERIDAN       PTCLDY    84  39  20 VRB3      30.25F
YELLOWSTONE LA PTSUNNY   66  32  28 S3        30.48S
SALMON         PTCLDY    79  54  42 SW3       30.14F
MULLAN PASS    SUNNY     77  39  26 VRB3      30.32S
SAND POINT     PTCLDY    82  54  38 SE7       30.06F
SPOKANE        PTCLDY    91  45  20 VRB6      30.07S

$$




USA.gov is the U.S. government's official web portal to all federal, state and local government web resources and services.